Location: Augirein
(42.9320°N, 0.9181°E)
Time: 15:19:13
(UTC+00:00)

Meteor 2-8 Rocket - Pass Details

Date: 20 June 2021
Orbit: 937 x 957 km, 82.5° (Epoch: 01 August)

Event Time Altitude Azimuth Distance (km) Brightness Sun altitude
Rises 01:27:17 0° 350° (N) 3,635 8.5 -20.5°
Reaches altitude 10° 01:29:47 10° 349° (N) 2,688 7.6 -20.3°
Maximum altitude 01:35:56 77° 264° (W) 984 4.4 -19.9°
Enters shadow 01:38:55 32° 185° (S) 1,567 5.1 -19.7°
